| time (UTC) | temp C | wind direction | speed KPH | gust KPH | rain 1hr cm | rain 24hr cm | rain mn cm | humidity % | barometer mb |
| 20260504232104 | 14 | 6 | 22.5 | 35.4 | 0.00 | 0.03 | 0.00 | 3 | 1010.8 |
| 20260504231604 | 14 | 15 | 22.5 | 35.4 | 0.00 | 0.03 | 0.00 | 3 | 1010.6 |
| 20260504231104 | 13 | 17 | 25.7 | 37.0 | 0.00 | 0.03 | 0.00 | 3 | 1010.4 |
| 20260504230604 | 14 | 18 | 29.0 | 37.0 | 0.00 | 0.03 | 0.00 | 3 | 1010.3 |
| 20260504230105 | 15 | 16 | 16.1 | 25.7 | 0.00 | 0.03 | 0.00 | 3 | 1010.5 |
| 20260504225604 | 15 | 55 | 11.3 | 19.3 | 0.00 | 0.03 | 0.00 | 3 | 1010.5 |
| 20260504225104 | 16 | 15 | 9.7 | 16.1 | 0.00 | 0.03 | 0.00 | 3 | 1010.5 |
| 20260504224604 | 15 | 355 | 17.7 | 29.0 | 0.00 | 0.03 | 0.00 | 3 | 1010.4 |
| 20260504224104 | 16 | 26 | 9.7 | 25.7 | 0.00 | 0.03 | 0.00 | 3 | 1010.4 |
| 20260504223604 | 16 | 88 | 6.4 | 11.3 | 0.00 | 0.03 | 0.00 | 3 | 1010.5 |
| 20260504223104 | 16 | 122 | 4.8 | 9.7 | 0.00 | 0.03 | 0.00 | 3 | 1010.5 |
| 20260504222604 | 16 | 171 | 1.6 | 12.9 | 0.00 | 0.03 | 0.00 | 3 | 1010.4 |
| 20260504222104 | 16 | 140 | 8.0 | 12.9 | 0.00 | 0.03 | 0.00 | 3 | 1010.3 |
| 20260504221103 | 16 | 173 | 1.6 | 3.2 | 0.00 | 0.03 | 0.00 | 3 | 1010.4 |
| 20260504220605 | 16 | 172 | 3.2 | 12.9 | 0.00 | 0.03 | 0.00 | 3 | 1010.4 |
| 20260504220104 | 16 | 150 | 3.2 | 12.9 | 0.00 | 0.03 | 0.00 | 3 | 1010.5 |
| 20260504215604 | 16 | 116 | 8.0 | 12.9 | 0.00 | 0.03 | 0.03 | 3 | 1010.5 |
| 20260504215104 | 16 | 172 | 1.6 | 4.8 | 0.00 | 0.03 | 0.03 | 3 | 1010.5 |
| 20260504214604 | 16 | 166 | 3.2 | 8.0 | 0.00 | 0.03 | 0.03 | 3 | 1010.5 |
| 20260504214105 | 16 | 157 | 4.8 | 9.7 | 0.00 | 0.03 | 0.03 | 3 | 1010.5 |
| 20260504213604 | 16 | 171 | 6.4 | 11.3 | 0.00 | 0.03 | 0.03 | 3 | 1010.5 |
| 20260504213104 | 16 | 183 | 4.8 | 8.0 | 0.00 | 0.03 | 0.03 | 3 | 1010.6 |
| 20260504212103 | 16 | 134 | 1.6 | 3.2 | 0.00 | 0.03 | 0.03 | 3 | 1010.7 |
| 20260504211603 | 16 | 109 | 0.0 | 0.0 | 0.00 | 0.03 | 0.03 | 3 | 1010.7 |
| 20260504211104 | 16 | 109 | 1.6 | 4.8 | 0.00 | 0.03 | 0.03 | 3 | 1010.7 |
| 20260504210604 | 16 | 78 | 1.6 | 8.0 | 0.00 | 0.03 | 0.03 | 3 | 1010.6 |
| 20260504210104 | 15 | 46 | 4.8 | 9.7 | 0.00 | 0.03 | 0.03 | 3 | 1010.6 |
| 20260504205604 | 15 | 46 | 6.4 | 16.1 | 0.00 | 0.03 | 0.03 | 3 | 1010.6 |
| 20260504205104 | 16 | 61 | 4.8 | 9.7 | 0.00 | 0.03 | 0.03 | 3 | 1010.6 |
| 20260504204604 | 17 | 106 | 4.8 | 12.9 | 0.00 | 0.03 | 0.03 | 3 | 1010.6 |
| 20260504203603 | 17 | 106 | 6.4 | 11.3 | 0.00 | 0.03 | 0.03 | 3 | 1010.6 |
| 20260504203104 | 17 | 92 | 3.2 | 4.8 | 0.00 | 0.03 | 0.03 | 3 | 1010.7 |
| 20260504202604 | 17 | 61 | 4.8 | 11.3 | 0.00 | 0.03 | 0.03 | 3 | 1010.7 |
| 20260504202105 | 17 | 62 | 6.4 | 12.9 | 0.00 | 0.03 | 0.03 | 3 | 1010.6 |
| 20260504201604 | 17 | 355 | 0.0 | 1.6 | 0.00 | 0.03 | 0.03 | 3 | 1010.6 |
| 20260504201103 | 17 | 355 | 1.6 | 4.8 | 0.00 | 0.03 | 0.03 | 3 | 1010.6 |
| 20260504200603 | 17 | 357 | 4.8 | 8.0 | 0.00 | 0.03 | 0.03 | 3 | 1010.5 |
| 20260504200105 | 17 | 8 | 8.0 | 12.9 | 0.00 | 0.03 | 0.03 | 3 | 1010.4 |
| 20260504195604 | 17 | 35 | 8.0 | 12.9 | 0.00 | 0.03 | 0.03 | 3 | 1010.5 |
| 20260504195104 | 17 | 0 | 1.6 | 4.8 | 0.00 | 0.03 | 0.03 | 3 | 1010.4 |
| 20260504194104 | 17 | 342 | 1.6 | 4.8 | 0.00 | 0.03 | 0.03 | 3 | 1010.2 |
| 20260504193604 | 17 | 159 | 0.0 | 1.6 | 0.00 | 0.03 | 0.03 | 3 | 1010.0 |
| 20260504193104 | 17 | 161 | 1.6 | 3.2 | 0.00 | 0.03 | 0.03 | 3 | 1009.8 |
| 20260504192604 | 17 | 161 | 1.6 | 9.7 | 0.00 | 0.03 | 0.03 | 3 | 1009.5 |
| 20260504192104 | 17 | 163 | 4.8 | 11.3 | 0.00 | 0.03 | 0.03 | 3 | 1009.3 |
| 20260504191604 | 17 | 132 | 11.3 | 16.1 | 0.00 | 0.03 | 0.03 | 3 | 1009.1 |
| 20260504191104 | 17 | 138 | 8.0 | 14.5 | 0.00 | 0.03 | 0.03 | 3 | 1009.1 |
| 20260504190604 | 17 | 152 | 4.8 | 14.5 | 0.00 | 0.03 | 0.03 | 3 | 1009.1 |
| 20260504185605 | 17 | 178 | 4.8 | 12.9 | 0.00 | 0.03 | 0.03 | 3 | 1008.9 |
| 20260504184604 | 17 | 194 | 8.0 | 16.1 | 0.00 | 0.03 | 0.03 | 3 | 1008.6 |
| 20260504184104 | 17 | 196 | 11.3 | 20.9 | 0.00 | 0.03 | 0.03 | 3 | 1008.5 |
| 20260504183604 | 17 | 209 | 11.3 | 25.7 | 0.00 | 0.03 | 0.03 | 3 | 1008.5 |
| 20260504183104 | 17 | 201 | 12.9 | 29.0 | 0.00 | 0.03 | 0.03 | 3 | 1008.6 |
| 20260504182604 | 17 | 193 | 8.0 | 19.3 | 0.00 | 0.03 | 0.03 | 3 | 1008.6 |
| 20260504182104 | 17 | 182 | 12.9 | 24.1 | 0.00 | 0.03 | 0.03 | 3 | 1008.6 |
| 20260504181603 | 17 | 193 | 9.7 | 20.9 | 0.00 | 0.03 | 0.03 | 3 | 1008.7 |
| 20260504181103 | 17 | 187 | 14.5 | 22.5 | 0.00 | 0.03 | 0.03 | 3 | 1008.7 |
| 20260504180604 | 17 | 213 | 19.3 | 33.8 | 0.00 | 0.03 | 0.03 | 3 | 1008.7 |
| 20260504180104 | 18 | 208 | 11.3 | 24.1 | 0.00 | 0.03 | 0.03 | 3 | 1008.8 |
| 20260504175603 | 18 | 184 | 11.3 | 20.9 | 0.00 | 0.03 | 0.03 | 3 | 1008.7 |
| 20260504174604 | 18 | 189 | 9.7 | 19.3 | 0.00 | 0.03 | 0.03 | 3 | 1008.7 |
| 20260504174104 | 18 | 211 | 16.1 | 22.5 | 0.00 | 0.03 | 0.03 | 3 | 1008.8 |
| 20260504173604 | 18 | 206 | 11.3 | 20.9 | 0.00 | 0.03 | 0.03 | 3 | 1008.9 |
| 20260504173103 | 18 | 196 | 11.3 | 22.5 | 0.00 | 0.03 | 0.03 | 3 | 1008.9 |
| 20260504172604 | 18 | 204 | 11.3 | 19.3 | 0.00 | 0.03 | 0.03 | 3 | 1009.0 |
| 20260504172104 | 17 | 202 | 11.3 | 20.9 | 0.00 | 0.03 | 0.03 | 3 | 1009.1 |
| 20260504171604 | 18 | 196 | 11.3 | 19.3 | 0.00 | 0.03 | 0.03 | 3 | 1009.0 |
| 20260504171104 | 17 | 207 | 14.5 | 24.1 | 0.00 | 0.03 | 0.03 | 3 | 1009.1 |
| 20260504170603 | 17 | 201 | 11.3 | 20.9 | 0.00 | 0.03 | 0.03 | 3 | 1009.2 |
| 20260504170104 | 17 | 195 | 12.9 | 24.1 | 0.00 | 0.03 | 0.03 | 3 | 1009.2 |
| 20260504160104 | 18 | 193 | 11.3 | 22.5 | 0.03 | 0.03 | 0.03 | 3 | 1009.6 |
| 20260504151104 | 19 | 187 | 16.1 | 25.7 | 0.00 | 0.00 | 0.00 | 3 | 1009.4 |
| 20260504150604 | 19 | 181 | 19.3 | 32.2 | 0.00 | 0.00 | 0.00 | 3 | 1009.3 |
| 20260504150105 | 19 | 177 | 19.3 | 38.6 | 0.00 | 0.00 | 0.00 | 3 | 1009.2 |
| 20260504141104 | 19 | 166 | 19.3 | 41.8 | 0.00 | 0.00 | 0.00 | 3 | 1009.4 |
| 20260504140604 | 19 | 176 | 19.3 | 41.8 | 0.00 | 0.00 | 0.00 | 3 | 1009.6 |
| 20260504140104 | 19 | 168 | 22.5 | 41.8 | 0.00 | 0.00 | 0.00 | 3 | 1009.4 |
| 20260504130604 | 20 | 199 | 11.3 | 24.1 | 0.00 | 0.00 | 0.00 | 3 | 1010.2 |
| 20260504130105 | 20 | 180 | 16.1 | 32.2 | 0.00 | 0.00 | 0.00 | 3 | 1010.2 |
| 20260504120105 | 20 | 197 | 12.9 | 19.3 | 0.00 | 0.00 | 0.00 | 3 | 1010.7 |
| 20260504110604 | 18 | 344 | 3.2 | 4.8 | 0.00 | 0.00 | 0.00 | 3 | 1011.5 |
| 20260504110105 | 18 | 342 | 4.8 | 4.8 | 0.00 | 0.00 | 0.00 | 3 | 1011.6 |
| 20260504100604 | 18 | 354 | 16.1 | 24.1 | 0.00 | 0.00 | 0.00 | 3 | 1011.4 |
| 20260504081604 | 18 | 186 | 9.7 | 19.3 | 0.00 | 0.00 | 0.00 | 3 | 1010.8 |
| 20260504081104 | 18 | 192 | 12.9 | 19.3 | 0.00 | 0.00 | 0.00 | 3 | 1010.8 |
| 20260504080604 | 18 | 196 | 14.5 | 24.1 | 0.00 | 0.00 | 0.00 | 3 | 1010.8 |
| 20260504080104 | 18 | 186 | 11.3 | 29.0 | 0.00 | 0.00 | 0.00 | 3 | 1010.8 |
| 20260504070105 | 16 | 208 | 8.0 | 25.7 | 0.00 | 0.00 | 0.00 | 3 | 1010.6 |
| 20260504060104 | 16 | 198 | 11.3 | 19.3 | 0.00 | 0.00 | 0.00 | 3 | 1010.7 |
| 20260504050603 | 16 | 178 | 11.3 | 19.3 | 0.00 | 0.00 | 0.00 | 3 | 1010.8 |
| 20260504050104 | 16 | 166 | 9.7 | 19.3 | 0.00 | 0.00 | 0.00 | 3 | 1010.8 |
| 20260504045604 | 16 | 192 | 11.3 | 22.5 | 0.00 | 0.00 | 0.00 | 3 | 1010.8 |
| 20260504045104 | 16 | 174 | 8.0 | 16.1 | 0.00 | 0.00 | 0.00 | 3 | 1010.8 |
| 20260504044604 | 16 | 168 | 11.3 | 19.3 | 0.00 | 0.00 | 0.00 | 3 | 1010.8 |
| 20260504043604 | 16 | 176 | 9.7 | 16.1 | 0.00 | 0.00 | 0.00 | 3 | 1010.9 |
| 20260504042104 | 16 | 202 | 8.0 | 16.1 | 0.00 | 0.00 | 0.00 | 3 | 1011.1 |
| 20260504041603 | 16 | 180 | 12.9 | 22.5 | 0.00 | 0.00 | 0.00 | 3 | 1011.0 |
| 20260504041103 | 16 | 193 | 11.3 | 19.3 | 0.00 | 0.00 | 0.00 | 3 | 1011.0 |
| 20260504040604 | 16 | 176 | 8.0 | 24.1 | 0.00 | 0.00 | 0.00 | 3 | 1011.1 |
| 20260504040104 | 16 | 181 | 8.0 | 19.3 | 0.00 | 0.00 | 0.00 | 3 | 1011.2 |
| 20260504035603 | 16 | 198 | 9.7 | 20.9 | 0.00 | 0.00 | 0.00 | 3 | 1011.3 |
| 20260504035103 | 16 | 182 | 9.7 | 16.1 | 0.00 | 0.00 | 0.00 | 3 | 1011.3 |
| 20260504034103 | 16 | 187 | 9.7 | 14.5 | 0.00 | 0.00 | 0.00 | 3 | 1011.4 |
| 20260504033604 | 16 | 167 | 9.7 | 19.3 | 0.00 | 0.00 | 0.00 | 3 | 1011.4 |
| 20260504033104 | 16 | 191 | 8.0 | 14.5 | 0.00 | 0.00 | 0.00 | 3 | 1011.6 |
| 20260504032104 | 16 | 172 | 6.4 | 14.5 | 0.00 | 0.00 | 0.00 | 3 | 1011.6 |
| 20260504031603 | 16 | 181 | 8.0 | 12.9 | 0.00 | 0.00 | 0.00 | 3 | 1011.6 |
| 20260504031104 | 16 | 169 | 9.7 | 16.1 | 0.00 | 0.00 | 0.00 | 3 | 1011.7 |
| 20260504030604 | 16 | 170 | 6.4 | 14.5 | 0.00 | 0.00 | 0.00 | 3 | 1011.8 |
| 20260504030105 | 16 | 185 | 8.0 | 14.5 | 0.00 | 0.00 | 0.00 | 3 | 1011.9 |
| 20260504025605 | 16 | 173 | 4.8 | 12.9 | 0.00 | 0.00 | 0.00 | 3 | 1011.9 |
| 20260504025104 | 16 | 171 | 9.7 | 14.5 | 0.00 | 0.00 | 0.00 | 3 | 1011.9 |
| 20260504023103 | 16 | 181 | 6.4 | 14.5 | 0.00 | 0.00 | 0.00 | 3 | 1012.0 |
| 20260504022604 | 16 | 164 | 4.8 | 12.9 | 0.00 | 0.00 | 0.00 | 3 | 1012.0 |
| 20260504022104 | 16 | 195 | 8.0 | 14.5 | 0.00 | 0.00 | 0.00 | 3 | 1012.1 |
| 20260504021604 | 16 | 159 | 8.0 | 16.1 | 0.00 | 0.00 | 0.00 | 3 | 1012.2 |
| 20260504021104 | 16 | 180 | 6.4 | 16.1 | 0.00 | 0.00 | 0.00 | 3 | 1012.2 |
| 20260504020603 | 16 | 174 | 6.4 | 11.3 | 0.00 | 0.00 | 0.00 | 3 | 1012.3 |
| 20260504020105 | 16 | 173 | 8.0 | 16.1 | 0.00 | 0.00 | 0.00 | 3 | 1012.2 |
| 20260504015604 | 16 | 175 | 4.8 | 12.9 | 0.00 | 0.00 | 0.00 | 3 | 1012.2 |
| 20260504015104 | 16 | 176 | 8.0 | 14.5 | 0.00 | 0.00 | 0.00 | 3 | 1012.2 |
| 20260504014604 | 16 | 176 | 4.8 | 9.7 | 0.00 | 0.00 | 0.00 | 3 | 1012.3 |
| 20260504014103 | 16 | 162 | 3.2 | 9.7 | 0.00 | 0.00 | 0.00 | 3 | 1012.2 |
| 20260504013604 | 16 | 180 | 4.8 | 11.3 | 0.00 | 0.00 | 0.00 | 3 | 1012.3 |
| 20260504013104 | 16 | 145 | 4.8 | 11.3 | 0.00 | 0.00 | 0.00 | 3 | 1012.3 |
| 20260504012604 | 16 | 161 | 4.8 | 9.7 | 0.00 | 0.00 | 0.00 | 3 | 1012.3 |
| 20260504012104 | 16 | 178 | 4.8 | 11.3 | 0.00 | 0.00 | 0.00 | 3 | 1012.4 |
| 20260504011604 | 16 | 185 | 6.4 | 11.3 | 0.00 | 0.00 | 0.00 | 3 | 1012.4 |
| 20260504010105 | 16 | 157 | 4.8 | 11.3 | 0.00 | 0.00 | 0.00 | 3 | 1012.5 |
| 20260504005604 | 16 | 174 | 8.0 | 14.5 | 0.00 | 0.00 | 0.00 | 3 | 1012.5 |
| 20260504005104 | 16 | 183 | 1.6 | 12.9 | 0.00 | 0.00 | 0.00 | 3 | 1012.6 |
| 20260504004605 | 16 | 197 | 6.4 | 12.9 | 0.00 | 0.00 | 0.00 | 3 | 1012.5 |
| 20260504004104 | 16 | 195 | 6.4 | 11.3 | 0.00 | 0.00 | 0.00 | 3 | 1012.6 |
| 20260504003603 | 16 | 188 | 4.8 | 9.7 | 0.00 | 0.00 | 0.00 | 3 | 1012.6 |
| 20260504002605 | 16 | 182 | 1.6 | 3.2 | 0.00 | 0.00 | 0.00 | 3 | 1012.7 |
| 20260504002103 | 16 | 199 | 0.0 | 3.2 | 0.00 | 0.00 | 0.00 | 3 | 1012.8 |
| 20260504001604 | 16 | 200 | 1.6 | 3.2 | 0.00 | 0.00 | 0.00 | 3 | 1012.8 |
| 20260504001103 | 16 | 200 | 0.0 | 0.0 | 0.00 | 0.00 | 0.00 | 3 | 1012.9 |
| 20260504000604 | 16 | 200 | 0.0 | 0.0 | 0.00 | 0.00 | 0.00 | 3 | 1012.9 |
| 20260503235603 | 16 | 201 | 1.6 | 4.8 | 0.00 | 0.00 | 0.00 | 3 | 1012.9 |
| 20260503235104 | 16 | 201 | 1.6 | 4.8 | 0.00 | 0.00 | 0.00 | 3 | 1012.9 |
| 20260503234604 | 16 | 192 | 1.6 | 4.8 | 0.00 | 0.00 | 0.00 | 3 | 1012.9 |
| 20260503234105 | 16 | 190 | 3.2 | 4.8 | 0.00 | 0.00 | 0.00 | 3 | 1013.0 |
| 20260503233604 | 16 | 205 | 3.2 | 4.8 | 0.00 | 0.00 | 0.00 | 3 | 1013.1 |
| 20260503233104 | 16 | 184 | 3.2 | 8.0 | 0.00 | 0.00 | 0.00 | 3 | 1013.0 |